Regional Weather Roundup
Issued by NWS

Home | Current Version | Previous Version | Graphics & Text | Print | Product List | Glossary On
Versions: 1 2 3 4 5 6 7 8 9 10 11 12 13 14 15 16 17 18 19 20 21 22 23 24 25 26 27 28 29 30 31 32 33 34 35 36 37 38 39 40 41 42 43 44 45 46 47 48 49 50
000
ASUS43 KMKX 202110
RWRWI

WISCONSIN REGIONAL WEATHER ROUNDUP
NATIONAL WEATHER SERVICE MILWAUKEE/SULLIVAN WI
300 PM CST MON NOV 20 2017

NOTE: "FAIR" INDICATES FEW OR NO CLOUDS BELOW 12,000 FEET WITH NO
SIGNIFICANT WEATHER AND/OR OBSTRUCTIONS TO VISIBILITY.

WIZ001-002-006>008-014>016-023>028-202200-
NORTHWEST WISCONSIN

CITY           SKY/WX    TMP DP  RH WIND       PRES   REMARKS
SUPERIOR ARPT  CLOUDY    36  30  80 CALM      29.38F
ASHLAND        CLOUDY    35  28  75 CALM      29.39F
HAYWARD        CLOUDY    42  27  55 S13       29.41S
SIREN          CLOUDY    42  29  59 SW8       29.42S
CUMBERLAND     CLOUDY    39  28  65 S9        29.43F WCI  33
RICE LAKE      CLOUDY    43  29  59 S12       29.45F
CHETEK         CLOUDY    43  30  59 S8        29.45F
LADYSMITH      CLOUDY    42  30  62 S7        29.46F
EAU CLAIRE     MOSUNNY   47  29  49 S9        29.47F
MENOMONIE      MOSUNNY   47  30  52 S12       29.46F
NEW RICHMOND   CLOUDY    43  29  57 S10       29.45F
OSCEOLA        MOSUNNY   44  30  59 S10       29.47S
$$

WIZ003>005-009-010-017-018-202200-
NORTH CENTRAL WISCONSIN

CITY           SKY/WX    TMP DP  RH WIND       PRES   REMARKS
MANITOWISH WTR CLOUDY    38  30  74 S9        29.40F WCI  31
ARBOR VITAE    CLOUDY    42  31  65 S12       29.43F
WOODRUFF       CLOUDY    42  31  65 S12       29.43F
RHINELANDER    CLOUDY    43  28  55 S9        29.47F
EAGLE RIVER    CLOUDY    41  28  57 S5        29.44F
LAND O LAKES   CLOUDY    39  32  75 S3        29.44F
PHILLIPS       CLOUDY    43  29  58 S12       29.43S
TOMAHAWK       CLOUDY    39  28  63 SE3       29.47F
MEDFORD        CLOUDY    41  30  65 S10       29.47F
MERRILL        CLOUDY    44  29  57 S5        29.49F
$$

WIZ029-030-035-036-043>047-202200-
CENTRAL WISCONSIN

CITY           SKY/WX    TMP DP  RH WIND       PRES   REMARKS
WAUSAU         CLOUDY    44  28  53 S12       29.49F
MOSINEE        CLOUDY    45  30  57 S9        29.52F
MARSHFIELD     CLOUDY    46  29  51 S12       29.48F
STEVENS POINT  CLOUDY    45  28  51 S12G17    29.53F
WAUPACA        CLOUDY    50  30  46 S14       29.55F
WAUTOMA        CLOUDY    49  30  48 S14G22    29.56F
WISC RAPIDS    CLOUDY    49  30  48 SW10      29.54F
CAMP DOUGLAS   CLOUDY    50  30  46 S7        29.54F
$$

WIZ011>013-019>022-031-037>040-048>050-202200-
NORTHEAST WISCONSIN

CITY           SKY/WX    TMP DP  RH WIND       PRES   REMARKS
ANTIGO         MOSUNNY   38  29  69 S10       29.51F WCI  32
SHAWANO        CLOUDY    45  31  56 S5        29.54F
OCONTO         CLOUDY    42  29  61 S6        29.56F
STURGEON BAY   MOSUNNY   41  32  70 S17       29.58F
GREEN BAY      CLOUDY    45  34  65 S10       29.57F
MANITOWOC      CLOUDY    45  34  65 S13       29.61F
APPLETON       MOSUNNY   46  27  46 S17G23    29.55F
CLINTONVILLE   CLOUDY    45  30  57 S12       29.54F
OSHKOSH        CLOUDY    47  32  56 S16G26    29.58F
$$

WIZ032>034-041-042-053>061-202200-
SOUTHWEST WISCONSIN

CITY           SKY/WX    TMP DP  RH WIND       PRES   REMARKS
LA CROSSE      CLOUDY    53  32  44 S15       29.52F
SPARTA         CLOUDY    51  32  47 SW6G16    29.53F
VIROQUA        CLOUDY    49  32  51 S13G20    29.55F
BOSCOBEL       CLOUDY    54  31  41 SW9       29.58F
PRAIRIE DU CHI CLOUDY    55  29  36 S6        29.57F
PLATTEVILLE    SUNNY     53  34  48 S16G22    29.62F
$$

WIZ056-057-062-063-064-067-068-202200-
SOUTH CENTRAL WISCONSIN

CITY           SKY/WX    TMP DP  RH WIND       PRES   REMARKS
REEDSBURG      CLOUDY    49  31  50 S14G20    29.57S
BARABOO/DELLS  CLOUDY    50  29  44 SW15G26   29.57S
LONE ROCK      CLOUDY    52  33  48 S12       29.59F
MINERAL POINT  CLOUDY    52  32  46 S16G26    29.60F
MADISON        CLOUDY    50  31  48 S16G28    29.61F
MIDDLETON      CLOUDY    53  31  44 SW16G23   29.62F
WATERTOWN      CLOUDY    49  33  52 S16G22    29.63F
MONROE         CLOUDY    52  32  46 S17G25    29.64F
JANESVILLE     SUNNY     54  32  43 S14G20    29.66F
$$

WIZ051-052-058>065-066-070>072-202200-
SOUTHEAST WISCONSIN

CITY           SKY/WX    TMP DP  RH WIND       PRES   REMARKS
MILWAUKEE      PTSUNNY   52  32  46 SW22G29   29.67F
WAUKESHA       SUNNY     48  30  49 S16G31    29.66F
MILWAUKEE/TIMM SUNNY     48  28  46 SW16G25   29.66F
RACINE         CLOUDY    51  33  50 SW18G33   29.69F
BURLINGTON     SUNNY     53  38  56 SW17G23   29.68F
KENOSHA        SUNNY     52  31  44 SW17G32   29.69F
FOND DU LAC    CLOUDY    47  30  51 S13       29.59F
SHEBOYGAN      CLOUDY    48  35  60 S9        29.61F
WEST BEND      CLOUDY    48  30  49 S15       29.62F
JUNEAU         CLOUDY    47  32  56 S13G23    29.63F
$$

LSZ147-162-202200-
LAKE SUPERIOR

STATION/POSITION TIME  TEMP    WIND        PRES    WAVE
                       AIR SEA DIR/SP/G            HT/PER
                 (UTC) (F)     (DEG/KT/KT) (MB)    (FT/S)
DEVILS ISLAND    2100   36      60/  5/  5  995.5F
SAXON HARBOR     2040   45     240/  4/  7  994.6F
$$

LMZ867-665-643>646-202200-
LAKE MICHIGAN

STATION/POSITION TIME  TEMP    WIND        PRES    WAVE
                       AIR SEA DIR/SP/G            HT/PER
                 (UTC) (F)     (DEG/KT/KT) (MB)    (FT/S)
N MID LAKE BUOY  2050   44 48  190/ 23/ 29 1002.9F   5/ 6
NORTHPORT PIER   2040   42     150/  7/ 17 1002.0F
KEWAUNEE LAKESHO 2042   42     170/ 18/ 23 1002.0F
SHEBOYGAN LAKESH 2100   43     180/ 17/ 18 1003.2F
PORT WASHINGTON  2040   47     190/  9/ 13 1004.7F
ATWATER BUOY     1939   47 42  200/ 10/ 12 1006.5F
MILWAUKEE LAKESH 2050   50     210/ 17/ 20   N/A
S MID LAKE BUOY  2050   48 49  200/ 23/ 31 1006.4F   6/ 6
KENOSHA   LAKESH 2100   53     210/ 12/ 24 1005.8
$$

TC  - TEMPERATURE IN CELSIUS
VSB - VISIBILITY IN STATUTE MILES
WCI - WIND CHILL INDEX
HX  - HEAT INDEX




USA.gov is the U.S. government's official web portal to all federal, state and local government web resources and services.